Change the Weather History Date:

Wednesday, November 21, 2012

  Actual Average Record
Temperature  
Mean Temperature 48 °F -  
Max Temperature 51 °F 42 °F 64 °F (2008)
Min Temperature 44 °F 29 °F 15 °F (2011)
Degree Days  
Heating Degree Days 18    
Moisture  
Dew Point 45 °F    
Average Humidity 87    
Maximum Humidity 94    
Minimum Humidity 75    
Precipitation  
Precipitation 0.00 in 0.06 in - ()
Sea Level Pressure  
Sea Level Pressure 30.20 in    
Wind  
Wind Speed 10 mph ()    
Max Wind Speed 18 mph    
Max Gust Speed -    
Visibility 6.3 miles    
Events Rain    
Averages and records for this station are not official NWS values.
T = Trace of Precipitation, MM = Missing Value Source: Averaged Metar Reports

Daily Weather History Graph

Daily Weather History Graph

Search for Another Location

Airport or City:

Trip Planner

Search our weather history database for the weather conditions in past years. The results will help you decide how hot, cold, wet, or windy it might be!

Date:

Astronomy

Nov. 21, 2012 Rise Set
Actual Time 7:25 AM EET 4:58 PM EET
Civil Twilight 6:54 AM EET 5:29 PM EET
Nautical Twilight 6:20 AM EET 6:04 PM EET
Astronomical Twilight 5:46 AM EET 6:37 PM EET
Moon 1:13 PM EET (11/21) 12:16 AM EET (11/21)
Length of Visible Light 10h 34m
Length of Day
9h 33m
First Quarter, 58% of the Moon is Illuminated
Nov 21
First Quarter
Nov 28
Full
Dec 6
Last Quarter
Dec 13
New
Dec 20
First Quarter

Hourly Weather History & Observations

Time (EET) Temp. Windchill Dew Point Humidity Pressure Visibility Wind Dir Wind Speed Gust Speed Precip Events Conditions
12:00 AM 51.8 °F - 50.0 °F 94% 30.18 in 6.2 mi East 15.7 mph - N/A   Overcast
12:30 AM 51.8 °F - 48.2 °F 88% 30.18 in 6.2 mi East 13.4 mph - N/A   Overcast
1:00 AM 50.0 °F - 48.2 °F 94% 30.18 in 6.2 mi ESE 17.9 mph - N/A Rain Light Rain
1:30 AM 50.0 °F - 48.2 °F 94% 30.18 in 6.2 mi ESE 15.7 mph - N/A   Overcast
2:00 AM 48 °F - 43 °F 78% 30.18 in 3 mi ESE 6.7 mph - -   Mist
2:00 AM 50.0 °F - 46.4 °F 87% 30.18 in 6.2 mi SE 15.7 mph - N/A   Overcast
2:30 AM 48.2 °F - 44.6 °F 87% 30.18 in 6.2 mi ESE 13.4 mph - N/A   Overcast
3:00 AM 48.2 °F - 44.6 °F 87% 30.18 in 6.2 mi ESE 13.4 mph - N/A   Overcast
3:30 AM 50.0 °F - 46.4 °F 87% 30.18 in 6.2 mi ESE 13.4 mph - N/A   Overcast
4:00 AM 50.0 °F - 46.4 °F 87% 30.18 in 6.2 mi ESE 13.4 mph - N/A   Overcast
4:30 AM 48.2 °F - 46.4 °F 93% 30.18 in 6.2 mi ESE 13.4 mph - N/A   Overcast
5:00 AM 47 °F - 43 °F 82% 30.19 in 3 mi East 2.2 mph - - Rain Light Rain Showers
5:00 AM 48.2 °F - 46.4 °F 93% 30.18 in 6.2 mi ESE 13.4 mph - N/A   Light Drizzle
5:30 AM 48.2 °F - 46.4 °F 93% 30.18 in 6.2 mi ESE 11.2 mph - N/A   Light Drizzle
6:00 AM 46.4 °F 41.2 °F 44.6 °F 93% 30.18 in 6.2 mi East 11.2 mph - N/A   Overcast
6:30 AM 46.4 °F 42.0 °F 44.6 °F 93% 30.18 in 6.2 mi East 8.9 mph - N/A   Overcast
7:00 AM 46.4 °F 41.2 °F 44.6 °F 93% 30.18 in 6.2 mi East 11.2 mph - N/A   Overcast
7:30 AM 48.2 °F - 46.4 °F 93% 30.18 in 6.2 mi East 11.2 mph - N/A   Overcast
8:00 AM 46 °F - 43 °F 84% 30.21 in 6 mi Calm Calm - -   Partly Cloudy
8:00 AM 48.2 °F - 46.4 °F 93% 30.21 in 6.2 mi ESE 13.4 mph - N/A Rain Light Rain
8:30 AM 48.2 °F - 46.4 °F 93% 30.21 in 6.2 mi ESE 13.4 mph - N/A   Overcast
9:00 AM 48.2 °F - 46.4 °F 93% 30.21 in 6.2 mi ESE 13.4 mph - N/A   Overcast
9:30 AM 50.0 °F - 46.4 °F 87% 30.21 in 6.2 mi ESE 13.4 mph - N/A   Overcast
10:00 AM 51.8 °F - 48.2 °F 88% 30.21 in 6.2 mi ESE 13.4 mph - N/A   Overcast
10:30 AM 50.0 °F - 46.4 °F 87% 30.21 in 6.2 mi ESE 15.7 mph - N/A   Overcast
11:00 AM 47 °F - 43 °F 81% 30.22 in 7 mi East 2.2 mph - -   Overcast
11:00 AM 50.0 °F - 46.4 °F 87% 30.21 in 6.2 mi ESE 15.7 mph - N/A   Overcast
11:30 AM 50.0 °F - 46.4 °F 87% 30.21 in 6.2 mi ESE 15.7 mph - N/A   Overcast
12:00 PM 50.0 °F - 46.4 °F 87% 30.21 in 6.2 mi ESE 11.2 mph - N/A   Overcast
12:30 PM 50.0 °F - 46.4 °F 87% 30.21 in 6.2 mi East 13.4 mph - N/A   Overcast
1:00 PM 50.0 °F - 46.4 °F 87% 30.18 in 6.2 mi East 11.2 mph - N/A   Overcast
1:30 PM 50.0 °F - 46.4 °F 87% 30.18 in 6.2 mi East 11.2 mph - N/A   Mostly Cloudy
2:00 PM 48 °F - 43 °F 75% 30.20 in 9 mi East 6.7 mph - -   Mostly Cloudy
2:00 PM 50.0 °F - 46.4 °F 87% 30.18 in 6.2 mi East 11.2 mph - N/A   Mostly Cloudy
2:30 PM 48.2 °F - 44.6 °F 87% 30.18 in 6.2 mi East 11.2 mph - N/A   Mostly Cloudy
3:00 PM 48.2 °F - 44.6 °F 87% 30.18 in 6.2 mi East 8.9 mph - N/A   Mostly Cloudy
3:30 PM 51.8 °F - 44.6 °F 76% 30.18 in 6.2 mi ESE 8.9 mph - N/A   Mostly Cloudy
4:00 PM 51.8 °F - 44.6 °F 76% 30.18 in 6.2 mi ESE 8.9 mph - N/A   Scattered Clouds
4:30 PM 50.0 °F - 44.6 °F 82% 30.18 in 6.2 mi ESE 6.7 mph - N/A   Scattered Clouds
5:00 PM 47 °F - 42 °F 77% 30.20 in 11 mi East 2.2 mph - -   Mostly Cloudy
5:00 PM 50.0 °F - 44.6 °F 82% 30.18 in 6.2 mi Variable 4.5 mph - N/A   Mostly Cloudy
5:30 PM 44.6 °F 40.8 °F 42.8 °F 93% 30.18 in 6.2 mi ESE 6.7 mph - N/A   Mostly Cloudy
6:00 PM 46.4 °F 41.2 °F 41.0 °F 81% 30.21 in 6.2 mi ESE 11.2 mph - N/A   Mostly Cloudy
6:30 PM 46.4 °F 41.2 °F 42.8 °F 87% 30.21 in 6.2 mi East 11.2 mph - N/A   Scattered Clouds
7:00 PM 46.4 °F 42.0 °F 42.8 °F 87% 30.21 in 6.2 mi East 8.9 mph - N/A   Scattered Clouds
7:30 PM 46.4 °F 42.0 °F 42.8 °F 87% 30.21 in 6.2 mi East 8.9 mph - N/A   Scattered Clouds
8:00 PM 45 °F - 41 °F 79% 30.24 in 9 mi Calm Calm - -   Mostly Cloudy
8:00 PM 46.4 °F 43.0 °F 44.6 °F 93% 30.21 in 6.2 mi East 6.7 mph - N/A   Mostly Cloudy
8:30 PM 46.4 °F 44.4 °F 42.8 °F 87% 30.24 in 6.2 mi SE 4.5 mph - N/A   Mostly Cloudy
9:00 PM 46.4 °F 44.4 °F 42.8 °F 87% 30.24 in 6.2 mi SE 4.5 mph - N/A   Mostly Cloudy
9:30 PM 46.4 °F 43.0 °F 42.8 °F 87% 30.24 in - ESE 6.7 mph - N/A   Clear
10:00 PM 46.4 °F 43.0 °F 42.8 °F 87% 30.24 in - ESE 6.7 mph - N/A   Clear
10:30 PM 48.2 °F - 44.6 °F 87% 30.24 in 6.2 mi ESE 6.7 mph - N/A   Partly Cloudy
11:00 PM 44 °F - 40 °F 79% 30.26 in 9 mi Calm Calm - -   Mostly Cloudy
11:00 PM 48.2 °F - 44.6 °F 87% 30.24 in - East 6.7 mph - N/A   Clear
11:30 PM 46.4 °F 42.0 °F 42.8 °F 87% 30.24 in - East 8.9 mph - N/A   Clear